Time,TemperatureF,DewpointF,PressureIn,WindDirection,WindDirectionDegrees,WindSpeedMPH,WindSpeedGustMPH,Humidity,HourlyPrecipIn,Conditions,Clouds,dailyrainin,SoftwareType,DateUTC
2013-07-29 00:02:00,60.0,58.0,30.01,SSW,205,0.0,0.0,93,0.00,,,0.39,,2013-07-29 04:02:00,
2013-07-29 00:12:00,59.0,57.0,30.01,SSW,205,0.0,0.0,93,0.00,,,0.39,,2013-07-29 04:12:00,
2013-07-29 00:22:00,59.0,57.0,30.02,SSW,208,0.0,0.0,93,0.00,,,0.39,,2013-07-29 04:22:00,
2013-07-29 00:53:00,59.0,56.0,30.03,SW,214,0.0,0.0,91,0.00,,,0.39,,2013-07-29 04:53:00,
2013-07-29 01:02:00,59.0,56.0,30.02,SSW,212,0.0,0.0,91,0.00,,,0.39,,2013-07-29 05:02:00,
2013-07-29 01:43:00,58.0,56.0,30.02,SW,214,0.0,0.0,93,0.00,,,0.39,,2013-07-29 05:43:00,
2013-07-29 01:53:00,57.0,55.0,30.02,SW,221,0.0,0.0,93,0.00,,,0.39,,2013-07-29 05:53:00,
2013-07-29 02:02:00,58.0,55.0,30.02,West,274,1.0,3.0,91,0.00,,,0.39,,2013-07-29 06:02:00,
2013-07-29 02:22:00,58.0,55.0,30.03,WSW,257,1.0,4.0,89,0.00,,,0.39,,2013-07-29 06:22:00,
2013-07-29 02:32:00,58.0,54.0,30.03,SW,218,0.0,6.0,87,0.00,,,0.39,,2013-07-29 06:32:00,
2013-07-29 02:43:00,58.0,54.0,30.03,SW,217,0.0,2.0,87,0.00,,,0.39,,2013-07-29 06:43:00,
2013-07-29 02:52:00,58.0,54.0,30.03,SW,224,0.0,0.0,86,0.00,,,0.39,,2013-07-29 06:52:00,
2013-07-29 03:03:00,58.0,54.0,30.03,SW,216,0.0,3.0,85,0.00,,,0.39,,2013-07-29 07:03:00,
2013-07-29 03:12:00,58.0,54.0,30.03,SW,217,0.0,2.0,86,0.00,,,0.39,,2013-07-29 07:12:00,
2013-07-29 03:23:00,57.0,53.0,30.04,WSW,249,0.0,0.0,87,0.00,,,0.39,,2013-07-29 07:23:00,
2013-07-29 03:33:00,57.0,53.0,30.04,SW,224,0.0,0.0,87,0.00,,,0.39,,2013-07-29 07:33:00,
2013-07-29 03:43:00,57.0,53.0,30.04,SW,219,0.0,0.0,86,0.00,,,0.39,,2013-07-29 07:43:00,
2013-07-29 03:53:00,57.0,53.0,30.04,South,169,0.0,0.0,87,0.00,,,0.39,,2013-07-29 07:53:00,
2013-07-29 04:02:00,56.0,53.0,30.05,South,169,0.0,0.0,89,0.00,,,0.39,,2013-07-29 08:02:00,
2013-07-29 04:12:00,55.0,53.0,30.05,South,169,0.0,0.0,92,0.00,,,0.39,,2013-07-29 08:12:00,
2013-07-29 04:22:00,54.0,52.0,30.05,South,169,0.0,0.0,92,0.00,,,0.38,,2013-07-29 08:22:00,
2013-07-29 04:33:00,54.0,52.0,30.06,South,169,0.0,0.0,94,0.00,,,0.38,,2013-07-29 08:33:00,
2013-07-29 04:42:00,53.0,51.0,30.06,South,169,0.0,0.0,94,0.00,,,0.38,,2013-07-29 08:42:00,
2013-07-29 05:02:00,52.0,51.0,30.06,South,169,0.0,0.0,95,0.00,,,0.38,,2013-07-29 09:02:00,
2013-07-29 05:12:00,52.0,51.0,30.06,South,169,0.0,0.0,96,0.00,,,0.38,,2013-07-29 09:12:00,
2013-07-29 05:22:00,52.0,51.0,30.05,South,169,0.0,0.0,96,0.00,,,0.38,,2013-07-29 09:22:00,
2013-07-29 05:33:00,52.0,51.0,30.05,South,169,0.0,0.0,96,0.00,,,0.38,,2013-07-29 09:33:00,
2013-07-29 05:43:00,52.0,51.0,30.06,South,169,0.0,0.0,96,0.00,,,0.38,,2013-07-29 09:43:00,
2013-07-29 05:53:00,51.0,50.0,30.06,South,169,0.0,0.0,96,0.01,,,0.39,,2013-07-29 09:53:00,
2013-07-29 06:25:00,51.0,50.0,30.06,South,169,0.0,0.0,96,0.01,,,0.39,,2013-07-29 10:25:00,
2013-07-29 06:37:00,51.0,50.0,30.07,South,169,0.0,0.0,97,0.01,,,0.39,,2013-07-29 10:37:00,
2013-07-29 06:48:00,53.0,52.0,30.07,South,169,0.0,0.0,96,0.01,,,0.39,,2013-07-29 10:48:00,
2013-07-29 06:54:00,54.0,53.0,30.07,South,169,0.0,0.0,96,0.00,,,0.39,,2013-07-29 10:54:00,
2013-07-29 07:07:00,56.0,55.0,30.07,South,169,0.0,0.0,96,0.00,,,0.39,,2013-07-29 11:07:00,
2013-07-29 07:25:00,57.0,55.0,30.08,South,169,0.0,0.0,94,0.00,,,0.39,,2013-07-29 11:25:00,
2013-07-29 07:38:00,57.0,56.0,30.08,South,169,0.0,0.0,95,0.00,,,0.39,,2013-07-29 11:38:00,
2013-07-29 10:07:00,66.0,56.0,30.09,WSW,242,2.0,6.0,69,0.00,,,0.18,,2013-07-29 14:07:00,
2013-07-29 10:47:00,67.0,55.0,30.09,WSW,250,2.0,9.0,65,0.00,,,0.06,,2013-07-29 14:47:00,
2013-07-29 10:55:00,67.0,54.0,30.09,SSE,154,4.0,9.0,63,0.00,,,0.06,,2013-07-29 14:55:00,
2013-07-29 11:09:00,68.0,55.0,30.10,West,270,3.0,9.0,64,0.00,,,0.06,,2013-07-29 15:09:00,
2013-07-29 11:16:00,68.0,53.0,30.10,SW,215,4.0,9.0,58,0.00,,,0.06,,2013-07-29 15:16:00,
2013-07-29 11:37:00,68.0,52.0,30.10,South,188,2.0,9.0,57,0.00,,,0.05,,2013-07-29 15:37:00,
2013-07-29 11:55:00,69.0,53.0,30.10,SW,232,2.0,7.0,56,0.00,,,0.05,,2013-07-29 15:55:00,
2013-07-29 12:08:00,69.0,52.0,30.10,WSW,249,6.0,9.0,54,0.00,,,0.05,,2013-07-29 16:08:00,
2013-07-29 12:13:00,69.0,53.0,30.10,WSW,253,3.0,9.0,57,0.00,,,0.05,,2013-07-29 16:13:00,
2013-07-29 12:24:00,69.0,53.0,30.10,SSW,203,5.0,10.0,57,0.00,,,0.05,,2013-07-29 16:24:00,
2013-07-29 12:47:00,67.0,52.0,30.11,SW,233,6.0,16.0,58,0.00,,,0.05,,2013-07-29 16:47:00,
2013-07-29 12:55:00,67.0,54.0,30.11,West,267,3.0,16.0,62,0.00,,,0.05,,2013-07-29 16:55:00,
2013-07-29 13:09:00,69.0,53.0,30.10,WSW,251,6.0,10.0,57,0.00,,,0.05,,2013-07-29 17:09:00,
2013-07-29 13:41:00,69.0,54.0,30.11,West,260,2.0,6.0,58,0.00,,,0.05,,2013-07-29 17:41:00,
2013-07-29 13:58:00,69.0,54.0,30.10,SSW,202,2.0,5.0,58,0.00,,,0.05,,2013-07-29 17:58:00,
2013-07-29 14:07:00,69.0,55.0,30.10,SE,143,2.0,6.0,62,0.00,,,0.05,,2013-07-29 18:07:00,
2013-07-29 14:16:00,70.0,55.0,30.11,WSW,238,1.0,6.0,58,0.00,,,0.05,,2013-07-29 18:16:00,
2013-07-29 14:27:00,70.0,54.0,30.11,SSW,212,2.0,4.0,57,0.00,,,0.05,,2013-07-29 18:27:00,
2013-07-29 14:37:00,70.0,54.0,30.11,SW,224,2.0,4.0,57,0.00,,,0.05,,2013-07-29 18:37:00,
2013-07-29 14:56:00,71.0,54.0,30.11,SSW,205,4.0,8.0,55,0.00,,,0.05,,2013-07-29 18:56:00,
2013-07-29 15:17:00,72.0,54.0,30.11,West,264,4.0,11.0,54,0.00,,,0.05,,2013-07-29 19:17:00,
2013-07-29 15:38:00,72.0,55.0,30.11,WSW,252,3.0,13.0,55,0.00,,,0.05,,2013-07-29 19:38:00,
2013-07-29 15:46:00,73.0,56.0,30.10,SE,135,4.0,9.0,56,0.00,,,0.05,,2013-07-29 19:46:00,
2013-07-29 15:55:00,73.0,57.0,30.10,SSW,195,3.0,9.0,58,0.00,,,0.05,,2013-07-29 19:55:00,
2013-07-29 17:07:00,72.0,56.0,30.10,East,91,1.0,8.0,57,0.00,,,0.05,,2013-07-29 21:07:00,
2013-07-29 17:36:00,74.0,52.0,30.10,West,276,7.0,10.0,47,0.00,,,0.05,,2013-07-29 21:36:00,
2013-07-29 17:49:00,73.0,54.0,30.10,West,260,6.0,14.0,52,0.00,,,0.05,,2013-07-29 21:49:00,
2013-07-29 17:57:00,73.0,54.0,30.10,West,264,4.0,12.0,52,0.00,,,0.05,,2013-07-29 21:57:00,
2013-07-29 18:37:00,71.0,54.0,30.11,West,269,4.0,8.0,55,0.00,,,0.05,,2013-07-29 22:37:00,
2013-07-29 18:55:00,71.0,55.0,30.10,West,280,2.0,6.0,57,0.00,,,0.05,,2013-07-29 22:55:00,
2013-07-29 19:06:00,72.0,54.0,30.11,WNW,284,2.0,6.0,54,0.00,,,0.05,,2013-07-29 23:06:00,
2013-07-29 19:27:00,69.0,55.0,30.11,West,269,2.0,6.0,60,0.00,,,0.05,,2013-07-29 23:27:00,
2013-07-29 19:35:00,68.0,54.0,30.11,SE,134,2.0,4.0,61,0.00,,,0.05,,2013-07-29 23:35:00,
2013-07-29 19:55:00,69.0,55.0,30.12,SW,215,1.0,3.0,60,0.00,,,0.05,,2013-07-29 23:55:00,
2013-07-29 20:08:00,69.0,56.0,30.12,SSW,198,1.0,5.0,63,0.00,,,0.05,,2013-07-30 00:08:00,
2013-07-29 20:27:00,69.0,56.0,30.13,SW,219,0.0,2.0,63,0.00,,,0.05,,2013-07-30 00:27:00,
2013-07-29 20:49:00,66.0,55.0,30.14,WSW,246,0.0,3.0,68,0.00,,,0.05,,2013-07-30 00:49:00,
2013-07-29 20:55:00,65.0,55.0,30.14,SSW,212,1.0,2.0,69,0.00,,,0.05,,2013-07-30 00:55:00,
2013-07-29 21:45:00,61.0,54.0,30.15,SSW,197,0.0,0.0,77,0.00,,,0.01,,2013-07-30 01:45:00,
2013-07-29 21:56:00,61.0,54.0,30.15,SE,136,0.0,1.0,78,0.00,,,0.01,,2013-07-30 01:56:00,
2013-07-29 22:07:00,60.0,53.0,30.16,SE,141,0.0,0.0,79,0.00,,,0.01,,2013-07-30 02:07:00,
2013-07-29 22:14:00,60.0,53.0,30.16,SE,141,0.0,0.0,79,0.00,,,0.01,,2013-07-30 02:14:00,
2013-07-29 22:46:00,60.0,54.0,30.16,SE,143,0.0,0.0,81,0.00,,,0.01,,2013-07-30 02:46:00,
2013-07-29 22:55:00,59.0,54.0,30.16,SE,145,0.0,0.0,82,0.00,,,0.01,,2013-07-30 02:55:00,
2013-07-29 23:53:00,58.0,54.0,30.17,ENE,72,0.0,0.0,86,0.00,,,0.01,,2013-07-30 03:53:00,